Погода Дзерджинское

Погода Дзерджинское : погода сейчас, прогноз погоды и архив. Всё, что Вы хотите узнать о погоде Дзерджинское!

Хотите узнать прогноз погоды Дзерджинское? Тогда Вам сюда: Погода Дзерджинское

Поиск расширенной информации на нашем сайте:

Полезная информация: Такси из аэропорта читать дальше.

Другие новости

Новости СМИ2

Главная страница сайта

Новости сайта

02.10.2013

Напоминаем, что на нашем новом сайте вы можете получить высокодетализированные прогнозы погоды по пунктам России, СНГ и мира (включающие важные для авиации метеовеличины, такие как направление и скорость ветра, видимость, явления погоды, количество и форма облачности, нижняя и верхняя граница облачности), а также ознакомиться с разнообразными материалами по авиационной метеорологии и подборкой полезных ссылок на эту тему.

Сайт Метеоцентр.Азия посвящён разработке технологий оптимизации авиаметеорологического обслуживания, включая проектирование и перспективное создание нескольких автоматизированных авиаметеорологических систем:
- система выпуска высокодетальных прогностических карт явлений погоды для нижнего воздушного пространства по России и ближнему зарубежью;
- система верификации прогнозов TAF (выпускаемых синоптиками официальных АМСГ РФ и ближнего зарубежья) и AUTOTAF (выпускаемых сайтом Метеоцентр.Азия) - выявление ошибок, онлайн-сопоставление с фактической погодой METAR, автоматическое внесение коррективов в прогнозы при резком отклонении фактической погоды от прогноза, подсчёт оправдываемости прогнозов по элементам и в целом;
- система обработки, анализа и отображения авиаметеорологической информации для применения провайдерами метеорологической информации.

Рекомендуем: Ремонт husqvarna проблема с хускварной husqvarna.

Погода Дзерджинское - сегодня

Время (UTC), дата Ветер
(°,м/с) 
Видим.   Явления Облачность Т
(°С)
Тd
(°С)
f(%) Тe
(°С)
Pmin
(гПа)
dP
(гПа)
Po
(мм)
O2
(г/м3)
Тmin Tmax R s Состояние
почвы
06 21.02.17 260 (З) 20000 м    5/5 600 м кучево-дожд. 
[Cb calv]
-5.7 -12.7 58 -8  1022.3  -0.1  749  309           
09 21.02.17 230 (ЮЗ) 20000 м    10/10 2000 м 
[Ac lent]
-5.2 -13 54 -5  1021.1  -1.1  748  308           
12 21.02.17 140 (ЮВ) 10 км    9/9 600 м кучево-дожд. 
[Cb calv]
-7.1 -11.7 70 -7  1020.2  -1.1  747  310    -4.9       
15 21.02.17 140 (ЮВ) 20000 м    6/6 600 м кучево-дожд. 
[Cb calv]
-7.3 -9.2 86 -7  1018.5  -1.7  746  310           
18 21.02.17 180 (Ю) 20000 м    10/10 2000 м 
[Ac As]
-6.2 -7.2 93 -6  1017  -1.3  745  308           
21 21.02.17 220 (ЮЗ) 20000 м    10/0 средняя 
[As op]
-4.2 -6 87 -4  1015.2  -1.6  743  305           
00 22.02.17 230 (ЮЗ) 10 км  слаб. снег  10/0 средняя 
[As op]
-3 -3.8 94 -3  1014.6  -0.4  743  303  -7.4    0.0  41  равномерный
сухой снег
100% 
03 22.02.17 260 (З) 10 км  слаб. снег  10/0 средняя 
[As op]
-0.9 -2.8 87 -3  1015.1  0.6  744  301           
06 22.02.17 270 (З) 4{11}  20000 м  {снег}  9/6 600 м кучево-дожд., верхняя 
[Cb calv|Ci fib]
+0.3 -3.1 78 -2  1016.1  744  300           
09 22.02.17 260 (З) 4{11}  20000 м    10/6 600 м средняя 
[Frnb|As op]
+0 -3.1 80 -2  1017.8  1.7  746  301           
12 22.02.17 260 (З) 20000 м    10/0 средняя 
[As op]
-0.9 -3.3 84 -2  1019.5  1.6  747  302    +0.7  0.0     
15 22.02.17 260 (З) 20000 м    10/0 средняя 
[As op]
-0.9 -3.6 82 -2  1020.2  0.7  747  303           
18 22.02.17 250 (З) 20000 м    10/10 600 м кучево-дожд. 
[Cb calv]
-1.2 -3.5 84 -1  1020.8  0.5  748  303           
21 22.02.17 250 (З) 10 км  слаб. ливневой снег  10/10 600 м кучево-дожд. 
[Cb calv]
-1.6 -2 97 -1  1020.7  -0.1  748  303           
00 23.02.17 тихо ()   10 км  слаб. снег{ливн. осадки}  10/0 средняя 
[As op]
-2.2 -2.4 99 -2  1021.5  0.7  748  304  -2.2    0.4  42  равномерный
сухой снег
100% 
03 23.02.17 250 (З) 10 км  слаб. снег  10/0 средняя 
[As op]
-1.2 -1.9 95 -1  1022.1  0.7  749  303  -2.6         
06 23.02.17 290 (З) 20000 м  {снег}  10/6 600 м средняя 
[Frnb|As op]
+0.7 -3.5 73 -1  1021.6  -0.3  749  301           
09 23.02.17 300 (СЗ) 20000 м    9/9 600 м кучево-дожд. 
[Cb calv]
+1.7 -3.1 70 +1  1022.2  0.7  749  300           
12 23.02.17 тихо ()   20000 м    9/9 600 м кучево-дожд. 
[Cb calv]
+0.1 -2.3 84 1023.3  0.9  750  302    +1.9  0.0     
15 23.02.17 тихо ()   20000 м    ясно 
-5 -5.2 99 -5  1025.4  1.6  751  309           
18 23.02.17 тихо ()   20000 м    8/0 средняя 
[Ac trans]
-5.3 -5.5 98 -5  1026.1  0.7  751  309           
21 23.02.17 тихо ()   20000 м    ясно 
-9.3 -9.4 99 -9  1027.1  0.5  752  315           
00 24.02.17 тихо ()   20000 м    3/0 верхняя 
[Ci fib]
-10.5 -10.8 98 -11  1027.8  0.6  752  316  -10.5      41  равномерный
сухой снег
100% 
03 24.02.17 150 (ЮВ) 20000 м    6/0 верхняя 
[Ci fib]
-7.1 -7.4 98 -7  1028.1  0.6  753  312  -11.1         
06 24.02.17 тихо ()   20000 м    4/0 верхняя 
[Ci fib]
+6.3 -5 44 +6  1026.4  -0.5  752  297           
Время (UTC), дата Ветер
(°,м/с) 
Видим.   Явления Облачность Т
(°С)
Тd
(°С)
f(%) Тe
(°С)
Pmin
(гПа)
dP
(гПа)
Po
(мм)
O2
(г/м3)
Тmin Tmax R s Состояние
почвы

Для получения пояснительной информации подведите курсор к названию столбца.

ПОГОДА Дзерджинское - архив

Всё, что Вы хотите узнать о погоде Дзерджинское - удобно и подробно!

Выберите нужную дату (начиная с 1 января 2015* года) и нажмите кнопку "Найти".
Будут отображены архивные сводки погоды по пункту Дзерджинское, начиная с указанной даты.


Отображать данные в формате CSV (для использования в таблицах Excel)


Внимание! Наш архив погоды предназначен исключительно для личного некоммерческого использования в познавательных целях. Если Вам необходимы официальные справки о состоянии погоды (для производственных, юридических, коммерческих и т.п. целей), обращайтесь в органы Росгидромета.

*Примечание: данная дата относится к архиву по метеостанциям СССР (Россия, СНГ, Балтия).
Архив по метеостанциям Зарубежной Европы и Азии (кроме Китая) хранится 10 дней, по другим регионам земного шара (Китай, Африка, Америка, Австралия, Океания) - 1 день.

Дзерджинское - район местоположения метеостанции


Название, широта, долгота, высота метеостанции:
Дзерджинское 56.9°ш. 95.2°д. 188 м над ур. моря [Российская Федерация]

Дополнительная информация

В oтличие oт бoльшинства пoгoдных сайтoв мы публикуем пoдрoбную метеoинфoрмацию в детальнoм прoфессиoнальнoм фoрмате.

Характеристики температуры и влажнoсти вoздуха измеряются на высoте 2 м в тени вдали oт зданий и деревьев.
Скoрoсть ветра измеряется на высoте 10 м (на урoвне рoста челoвека скoрoсть ветра ниже в 1.5-2 раза). Если метеoстанция нахoдится в гoрoде или в лесу, тo скoрoсть ветра занижена на 2-4 м/с пo сравнению с oткрытым местoм. Скoрoсть ветра над акватoриями крупных рек и oзёр, а также на вершинах хoлмoв на 2-5 м/с выше, чем в oбычных услoвиях.
Атмoсфернoе давление в разных тoчках местнoсти мoжет значительнo oтличаться oт давления на метеoстанции, в зависимoсти oт услoвий рельефа (при пoдъёме на 10 м давление пoнижается примернo на 1 мм рт.ст.).